Location: Unspecified
(44.4377°N, 88.0525°W)
Time: 05:12:37
(UTC-05:00)

Cosmos 2058 - Visible Passes

Search period start: 01 October 2014 00:00
Search period end: 11 October 2014 00:00
Orbit: 570 x 594 km, 82.5° (Epoch: 30 September)

Date Brightness Start Highest point End Pass type
(mag) Time Alt. Az. Time Alt. Az. Time Alt. Az.
01 Oct 4.9 20:09:08 10° NNW 20:12:50 31° W 20:16:33 10° SSW visible
02 Oct 5.5 20:15:09 10° NW 20:18:26 22° W 20:21:43 10° SW visible
03 Oct 6.0 20:21:21 10° NW 20:23:59 16° W 20:26:38 10° SW visible
04 Oct 6.4 20:27:58 10° WNW 20:29:31 12° W 20:31:04 10° WSW visible
05 Oct 3.0 18:54:26 10° N 18:58:41 87° E 19:02:55 10° S visible
06 Oct 3.4 19:00:08 10° NNW 19:04:20 67° W 19:08:32 10° S visible
07 Oct 4.2 19:05:54 10° NNW 19:09:58 46° W 19:14:01 10° SSW visible
08 Oct 5.0 19:11:45 10° NNW 19:15:34 33° W 19:19:22 10° SSW visible
09 Oct 6.9 06:05:40 10° E 06:05:51 10° E 06:06:02 10° E visible
09 Oct 5.6 19:17:42 10° NW 19:21:07 24° W 19:24:33 10° SW visible
10 Oct 6.4 06:09:07 10° ESE 06:11:20 14° E 06:13:33 10° NE visible
10 Oct 6.2 19:23:48 10° NW 19:26:39 18° W 19:29:30 10° SW visible
